Regional Weather Roundup
Issued by NWS

Home | Current Version | Previous Version | Text Only | Print | Product List | Glossary On
Versions: 1 2 3 4 5 6 7 8 9 10 11 12 13 14 15 16 17 18 19 20 21 22 23 24 25 26 27 28 29 30 31 32 33 34 35 36 37 38 39 40 41 42 43 44 45 46 47 48 49 50
000
ASUS43 KDMX 230007
RWRIA

WEATHER ROUNDUP FOR IOWA
NATIONAL WEATHER SERVICE DES MOINES IA
700 PM CDT FRI MAY 22 2015

NOTE: "FAIR" INDICATES FEW OR NO CLOUDS BELOW 12,000 FEET WITH NO
SIGNIFICANT WEATHER AND/OR OBSTRUCTIONS TO VISIBILITY.

* - THESE STATIONS ARE NOT NWS STATIONS...THUS NOT UNDER NWS
QUALITY CONTROL.  THEY ALSO DO NOT REPORT WEATHER SUCH
AS PRECIPITATION OR FOG.

IAZ001>003-012>014-020>022-031>034-043>046-230100-
   NORTHWEST IOWA

CITY           SKY/WX    TMP DP  RH WIND       PRES   REMARKS
CARROLL *      SUNNY     64  43  45 SW21G26   30.20R
CHEROKEE *     CLOUDY    64  43  46 SW18      30.18R
DENISON *      PTSUNNY   59  48  67 S10       30.19F
LE MARS *      SUNNY     64  43  45 SW15G22   30.20R
ORANGE CITY *  SUNNY     63  43  48 SW22      30.18S
SHELDON *      SUNNY     70  39  32 SW14      30.15S
SIOUX CITY     CLOUDY    63  41  44 S15       30.19F
6HR MIN TEMP:  63; 6HR MAX TEMP:  74;

SPENCER        CLOUDY    71  44  37 SE3       30.16F
6HR MIN TEMP:  70; 6HR MAX TEMP:  76;

STORM LAKE *   SUNNY     64  43  45 SW20G28   30.19S
$$

IAZ055>058-069>071-079>083-090>094-230100-
   SOUTHWEST IOWA

CITY           SKY/WX    TMP DP  RH WIND       PRES   REMARKS
ATLANTIC *     CLOUDY    63  48  59 CALM      30.20F
AUDUBON *      LGT RAIN  61  48  63 S7        30.23S
CLARINDA *     MOSUNNY   68  45  42 VRB7      30.21F
COUNCIL BLFS * SUNNY     64  43  45 E10       30.19F
CRESTON *      CLOUDY    63  54  72 CALM      30.22S
HARLAN  *      CLOUDY    61  55  82 CALM      30.23F
LAMONI         CLOUDY    68  56  65 N3        30.21F
6HR MIN TEMP:  65; 6HR MAX TEMP:  71; 6HR PCP: TRACE;

RED OAK *      PTSUNNY   66  45  45 E8        30.19F
SHENANDOAH *   CLOUDY    66  48  52 SE7       30.19F
$$

IAZ047>049-059>061-072>074-084-230100-
   CENTRAL IOWA

CITY           SKY/WX    TMP DP  RH WIND       PRES   REMARKS
AMES           CLOUDY    70  39  32 SW7       30.17F
6HR MIN TEMP:  70; 6HR MAX TEMP:  77;

ANKENY *       SUNNY     72  48  43 SW3       30.18S
CHARITON *     SUNNY     66  50  55 W9        30.21S
DES MOINES     CLOUDY    71  46  40 SW13      30.19S
6HR MIN TEMP:  71; 6HR MAX TEMP:  78;

GRINNELL*      CLOUDY    70  41  35 CALM      30.19F
KNOXVILLE *    SUNNY     70  52  52 SW7       30.19S
MARSHALLTOWN   CLOUDY    70  41  34 SW6       30.17S
6HR MIN TEMP:  70; 6HR MAX TEMP:  75;

PELLA *        CLOUDY    70  50  49 SW3       30.20F
PERRY *          N/A     70  42  36 SW16      30.19R
$$

IAZ004>006-015-016-023>025-035-036-230100-
   NORTH CENTRAL IOWA

CITY           SKY/WX    TMP DP  RH WIND       PRES   REMARKS
ALGONA *       SUNNY     70  43  37 SE5       30.18S
CLARION *      SUNNY     72  32  23 SW5       30.18S
ESTHERVILLE    CLOUDY    69  34  27 S5        30.16F
6HR MIN TEMP:  69; 6HR MAX TEMP:  74;

FORT DODGE *   CLOUDY    68  50  52 CALM      30.18F
MASON CITY     CLOUDY    73  34  23 SE5       30.18F
6HR MIN TEMP:  71; 6HR MAX TEMP:  75;

FOREST CITY *  SUNNY     68  41  37 CALM      30.18S
IOWA FALLS *     N/A     72  30  21 W6        30.19S
$$

IAZ007>011-017>019-026>030-037>042-050>054-066-230100-
   NORTHEAST IOWA

CITY           SKY/WX    TMP DP  RH WIND       PRES   REMARKS
CEDAR RAPIDS   CLOUDY    72  38  29 S5        30.18F
6HR MIN TEMP:  72; 6HR MAX TEMP:  75;

CHARLES CITY * SUNNY     72  37  28 S5        30.19S
CLINTON *      MOSUNNY   66  46  48 NE8       30.22R
DECORAH *      SUNNY     70  36  28 NE3       30.19R
DUBUQUE        CLOUDY    67  47  48 E7        30.21R
6HR MIN TEMP:  67; 6HR MAX TEMP:  74;

MONTICELLO *   SUNNY     70  43  37 SW6       30.19S
OELWEIN *      SUNNY     72  36  26 SW5       30.19F
WATERLOO       CLOUDY    70  43  37 SE5       30.17F
6HR MIN TEMP:  70; 6HR MAX TEMP:  75;

$$

IAZ064-065-067-068-078-230100-
   EAST CENTRAL IOWA

CITY           SKY/WX    TMP DP  RH WIND       PRES   REMARKS
DAVENPORT      PTSUNNY   73  36  25 SW8       30.20S
6HR MIN TEMP:  73; 6HR MAX TEMP:  77;

IOWA CITY      CLOUDY    73  39  29 N3        30.20S
6HR MIN TEMP:  72; 6HR MAX TEMP:  75;

MT. PLEASANT * CLOUDY    71  39  31 SW3       30.20S
MUSCATINE *    SUNNY     75  39  27 NW3       30.19S
QUAD CITIES    PTSUNNY   71  40  32 W6        30.18S
6HR MIN TEMP:  71; 6HR MAX TEMP:  78;

$$

IAZ062-063-075>077-085>089-095>099-230100-
   SOUTHEAST IOWA

CITY           SKY/WX    TMP DP  RH WIND       PRES   REMARKS
BURLINGTON     CLOUDY    71  47  42 SW3       30.19S
6HR MIN TEMP:  71; 6HR MAX TEMP:  76;

FAIRFIELD *    SUNNY     72  43  35 CALM      30.20S
FORT MADISON * SUNNY     70  46  43 CALM      30.21S
KEOKUK *       MOSUNNY   68  55  64 CALM      30.20S
OSKALOOSA *      N/A     73  38  28 SW5       30.20S
CENTERVILLE *  SUNNY     64  64 100 SW7       30.23S
OTTUMWA        CLOUDY    70  48  45 W3        30.19S
6HR MIN TEMP:  70; 6HR MAX TEMP:  76;

WASHINGTON *   SUNNY     73  37  27 CALM      30.21S
$$

ABBREVIATIONS USED IN REMARKS
   TC - TEMPERATURES IN CELSIUS
  WCI - WIND CHILL INDEX
   HX - HEAT INDEX
  VSB - VISIBILITY
$$




USA.gov is the U.S. government's official web portal to all federal, state and local government web resources and services.